User: anonymous   Login
Location: Caltech
(34.1382°N, 118.1253°W)
Time: 17:08:22
(UTC-07:00)
Language:

Cosmos 2219 - Orbit

View from above orbital plane
View from above orbital plane
View from above satellite
View from above satellite

Ground track
Ground track

The orbit data is extracted from the following two-line orbital elements,

1 22219U 92076A   15090.51603975  .00000391  00000-0  23192-3 0  9994
2 22219 071.0589 086.8419 0018506 189.8771 170.1990 14.13546871153933
Epoch (UTC): 31 March 2015 12:23:05
Eccentricity: 0.0018506
inclination: 71.0589°
perigee height: 834 km
apogee height: 860 km
right ascension of ascending node: 86.8419°
argument of perigee: 189.8771°
revolutions per day: 14.13546871
mean anomaly at epoch: 170.1990°
orbit number at epoch: 15393

The dashed part of the orbit path shows where the satellite is in the earth's shadow,  

DLR